Skip Page Navigation
NASA JPL Caltech
NASA Logo - Jet Propulsion Laboratory + View the NASA Portal
+ Center for Near-Earth Object Studies
JPL Home Earth Solar System Stars & Galaxies Technology
JPL Solar System Dynamics
BODIES ORBITS EPHEMERIDES TOOLS PHYSICAL DATA DISCOVERY FAQ SITE MAP
IMPORTANT: The SSD Announcement email list is now available. Major changes are coming in the near future, including possible hostname and/or URL changes. To be notified of such changes, subscribe to this email list.

Please visit this page for more details.


JPL Small-Body Database Browser
Search: [ help ]  
452808 (2006 KL94)
Classification: Main-belt Asteroid          SPK-ID: 2452808
Ephemeris | Orbit Diagram | Orbital Elements | Mission Design | Physical Parameters | Discovery Circumstances ]

[ show orbit diagram ]
Orbital Elements at Epoch 2458600.5 (2019-Apr-27.0) TDB
Reference: JPL 17 (heliocentric ecliptic J2000)
 Element Value Uncertainty (1-sigma)   Units 
e .2063401467783419 6.5803e-08  
a 2.526612948068856 2.5529e-08 au
q 2.005271261512269 1.6459e-07 au
i 16.79643561746401 3.5676e-05 deg
node 77.41662802435442 4.3323e-05 deg
peri 245.5390043476171 0.00017353 deg
M 20.29903242947113 0.00016346 deg
tp 2458517.785939800627
(2019-Feb-03.28593980)
0.00066595 TDB
period 1466.920247318901
4.02
2.2233e-05
6.087e-08
d
yr
n .2454121147062863 3.7194e-09 deg/d
Q 3.047954634625443 3.0796e-08 au
  Orbit Determination Parameters
   # obs. used (total)      117  
   data-arc span      4924 days (13.48 yr)  
   first obs. used      2006-05-08  
   last obs. used      2019-10-31  
   planetary ephem.      DE431  
   SB-pert. ephem.      SB431-N16  
   condition code      0  
   norm. resid. RMS      .5114  
   source      ORB  
   producer      Otto Matic  
   solution date      2019-Nov-08 16:50:41  

Additional Information
 Earth MOID = 1.05172 au 
 Jupiter MOID = 2.3626 au 
 T_jup = 3.365 
[ show covariance matrix ]

Ephemeris | Orbit Diagram | Orbital Elements | Mission Design | Physical Parameters | Discovery Circumstances ]

Physical Parameter Table
Parameter Symbol Value Units Sigma Reference Notes
absolute magnitude H 17.4   n/a MPO450474  

452808 (2006 KL94)          Discovered 2006-May-08 by Mt. Lemmon Survey at Mount Lemmon
Reference: Last Updated: 2016-01-04
Ephemeris | Orbit Diagram | Orbital Elements | Mission Design | Physical Parameters | Discovery Circumstances ]
ABOUT SSD CREDITS/AWARDS PRIVACY/COPYRIGHT GLOSSARY LINKS
FirstGov 2019-Dec-14 10:51 UT
(server date/time)  
NASA Home Page
Site Manager:   Ryan S. Park
Webmaster  Alan B. Chamberlin